Location: Unspecified
(43.4680°N, 87.1740°E)
Time: 20:59:34
(UTC+00:00)

Cosmos 44 - Pass Details

Date: 17 April 2021
Orbit: 571 x 791 km, 65.1° (Epoch: 12 May)

Event Time Altitude Azimuth Distance (km) Brightness Sun altitude
Rises 15:17:10 0° 228° (SW) 3,089 6.7 -23.0°
Reaches altitude 10° 15:19:31 10° 233° (SW) 2,207 6.0 -23.3°
Maximum altitude 15:24:27 51° 310° (NW) 946 4.3 -23.9°
Drops below altitude 10° 15:29:41 10° 26° (NNE) 2,331 6.2 -24.6°
Sets 15:32:13 0° 31° (NNE) 3,279 7.0 -24.9°
